Time,TemperatureF,DewpointF,PressureIn,WindDirection,WindDirectionDegrees,WindSpeedMPH,WindSpeedGustMPH,Humidity,HourlyPrecipIn,Conditions,Clouds,dailyrainin,SolarRadiationWatts/m^2,SoftwareType,DateUTC
2013-04-09 00:04:00,38.4,37.0,30.00,North,10,3.0,5.0,95,0.00,,,0.00,0,weatherlink.com 1.10,2013-04-09 05:04:00,
2013-04-09 00:19:00,38.3,37.0,30.01,NE,46,2.0,4.0,95,0.00,,,0.00,0,weatherlink.com 1.10,2013-04-09 05:19:00,
2013-04-09 00:34:00,38.2,37.0,30.02,NW,317,4.0,4.0,96,0.00,,,0.00,0,weatherlink.com 1.10,2013-04-09 05:34:00,
2013-04-09 00:49:00,38.2,37.0,30.02,NNE,24,1.0,4.0,96,0.00,,,0.00,0,weatherlink.com 1.10,2013-04-09 05:49:00,
2013-04-09 01:04:00,38.0,37.0,30.02,NNW,342,2.0,6.0,96,0.00,,,0.00,0,weatherlink.com 1.10,2013-04-09 06:04:00,
2013-04-09 01:19:00,38.0,37.0,30.03,ENE,69,0.0,7.0,96,0.00,,,0.00,0,weatherlink.com 1.10,2013-04-09 06:19:00,
2013-04-09 01:34:00,37.9,37.0,30.03,ESE,113,2.0,5.0,96,0.00,,,0.00,0,weatherlink.com 1.10,2013-04-09 06:34:00,
2013-04-09 01:49:00,37.8,37.0,30.03,North,5,1.0,6.0,96,0.00,,,0.00,0,weatherlink.com 1.10,2013-04-09 06:49:00,
2013-04-09 02:04:00,37.9,37.0,30.03,NNE,30,3.0,5.0,96,0.00,,,0.00,0,weatherlink.com 1.10,2013-04-09 07:04:00,
2013-04-09 02:19:00,37.9,37.0,30.02,NNE,26,2.0,4.0,96,0.00,,,0.00,0,weatherlink.com 1.10,2013-04-09 07:19:00,
2013-04-09 02:34:00,37.8,37.0,30.01,NE,49,1.0,5.0,96,0.00,,,0.00,0,weatherlink.com 1.10,2013-04-09 07:34:00,
2013-04-09 02:49:00,37.8,37.0,30.00,NE,35,1.0,5.0,96,0.00,,,0.00,0,weatherlink.com 1.10,2013-04-09 07:49:00,
2013-04-09 03:06:00,37.8,37.0,30.03,NE,36,4.0,6.0,97,0.00,,,0.00,0,weatherlink.com 1.10,2013-04-09 08:06:00,
2013-04-09 03:19:00,37.7,37.0,30.03,NE,49,1.0,5.0,97,0.00,,,0.00,0,weatherlink.com 1.10,2013-04-09 08:19:00,
2013-04-09 03:34:00,37.6,37.0,30.03,NNE,12,1.0,5.0,97,0.00,,,0.00,0,weatherlink.com 1.10,2013-04-09 08:34:00,
2013-04-09 03:49:00,37.5,37.0,30.03,ENE,57,2.0,7.0,97,0.00,,,0.00,0,weatherlink.com 1.10,2013-04-09 08:49:00,
2013-04-09 04:04:00,37.5,37.0,30.04,NNE,12,2.0,5.0,97,0.00,,,0.00,0,weatherlink.com 1.10,2013-04-09 09:04:00,
2013-04-09 04:19:00,37.5,37.0,30.03,NNE,27,2.0,6.0,97,0.00,,,0.00,0,weatherlink.com 1.10,2013-04-09 09:19:00,
2013-04-09 04:34:00,37.3,37.0,30.03,NE,45,2.0,4.0,97,0.00,,,0.00,0,weatherlink.com 1.10,2013-04-09 09:34:00,
2013-04-09 04:49:00,37.2,37.0,30.02,NNE,22,0.0,7.0,97,0.00,,,0.00,0,weatherlink.com 1.10,2013-04-09 09:49:00,
2013-04-09 05:04:00,37.2,37.0,30.01,NE,50,2.0,5.0,97,0.00,,,0.00,0,weatherlink.com 1.10,2013-04-09 10:04:00,
2013-04-09 05:19:00,37.0,36.0,30.01,NE,50,2.0,7.0,97,0.00,,,0.00,0,weatherlink.com 1.10,2013-04-09 10:19:00,
2013-04-09 05:34:00,36.9,36.0,30.01,NE,43,4.0,6.0,97,0.00,,,0.00,0,weatherlink.com 1.10,2013-04-09 10:34:00,
2013-04-09 06:05:00,36.8,36.0,30.01,NNE,19,3.0,6.0,97,0.00,,,0.00,0,weatherlink.com 1.10,2013-04-09 11:05:00,
2013-04-09 06:20:00,36.5,36.0,29.98,North,5,4.0,7.0,97,0.00,,,0.00,0,weatherlink.com 1.10,2013-04-09 11:20:00,
2013-04-09 06:35:00,36.3,36.0,29.97,NE,48,4.0,8.0,97,0.00,,,0.00,0,weatherlink.com 1.10,2013-04-09 11:35:00,
2013-04-09 06:50:00,36.4,36.0,29.99,NE,49,1.0,7.0,97,0.00,,,0.00,0,weatherlink.com 1.10,2013-04-09 11:50:00,
2013-04-09 07:05:00,36.5,36.0,29.99,NE,36,2.0,6.0,97,0.01,,,0.01,0,weatherlink.com 1.10,2013-04-09 12:05:00,
2013-04-09 07:20:00,36.5,36.0,30.00,NE,53,5.0,5.0,97,0.01,,,0.01,0,weatherlink.com 1.10,2013-04-09 12:20:00,
2013-04-09 07:35:00,36.5,36.0,30.01,NNE,25,3.0,6.0,97,0.02,,,0.02,0,weatherlink.com 1.10,2013-04-09 12:35:00,
2013-04-09 07:50:00,36.6,36.0,30.04,NE,42,1.0,5.0,97,0.02,,,0.03,0,weatherlink.com 1.10,2013-04-09 12:50:00,
2013-04-09 08:05:00,36.6,36.0,30.02,NNE,26,3.0,6.0,97,0.03,,,0.04,0,weatherlink.com 1.10,2013-04-09 13:05:00,
2013-04-09 08:20:00,36.6,36.0,30.04,NE,36,1.0,3.0,97,0.05,,,0.06,0,weatherlink.com 1.10,2013-04-09 13:20:00,
2013-04-09 08:35:00,36.6,36.0,30.01,NE,53,2.0,4.0,97,0.06,,,0.08,5,weatherlink.com 1.10,2013-04-09 13:35:00,
2013-04-09 08:50:00,36.6,36.0,29.98,NE,37,4.0,5.0,97,0.08,,,0.11,21,weatherlink.com 1.10,2013-04-09 13:50:00,
2013-04-09 09:05:00,36.6,36.0,29.99,ENE,71,1.0,6.0,97,0.10,,,0.14,7,weatherlink.com 1.10,2013-04-09 14:05:00,
2013-04-09 09:20:00,36.8,36.0,29.98,NNE,32,1.0,6.0,97,0.10,,,0.16,35,weatherlink.com 1.10,2013-04-09 14:20:00,
2013-04-09 09:35:00,36.9,36.0,29.98,North,355,4.0,7.0,98,0.10,,,0.19,14,weatherlink.com 1.10,2013-04-09 14:35:00,
2013-04-09 09:50:00,36.9,36.0,29.99,NNE,18,2.0,7.0,98,0.10,,,0.22,14,weatherlink.com 1.10,2013-04-09 14:50:00,
2013-04-09 10:05:00,36.9,36.0,29.97,NE,44,2.0,8.0,97,0.10,,,0.24,18,weatherlink.com 1.10,2013-04-09 15:05:00,
2013-04-09 10:20:00,37.1,37.0,29.97,NNE,33,5.0,11.0,98,0.12,,,0.28,23,weatherlink.com 1.10,2013-04-09 15:20:00,
2013-04-09 10:35:00,37.1,37.0,29.95,NE,40,3.0,10.0,98,0.12,,,0.31,11,weatherlink.com 1.10,2013-04-09 15:35:00,
2013-04-09 10:50:00,37.1,37.0,29.95,NE,36,4.0,7.0,98,0.12,,,0.34,0,weatherlink.com 1.10,2013-04-09 15:50:00,
2013-04-09 11:05:00,37.3,37.0,29.96,NE,39,3.0,5.0,98,0.13,,,0.38,11,weatherlink.com 1.10,2013-04-09 16:05:00,
2013-04-09 11:20:00,37.7,37.0,29.94,NE,45,1.0,5.0,98,0.14,,,0.42,25,weatherlink.com 1.10,2013-04-09 16:20:00,
2013-04-09 11:35:00,38.0,38.0,29.93,ENE,61,2.0,6.0,98,0.14,,,0.45,37,weatherlink.com 1.10,2013-04-09 16:35:00,
2013-04-09 11:50:00,37.9,37.0,29.92,ENE,65,4.0,5.0,98,0.14,,,0.49,11,weatherlink.com 1.10,2013-04-09 16:50:00,
2013-04-09 12:05:00,38.1,38.0,29.91,NNE,28,1.0,3.0,98,0.14,,,0.52,21,weatherlink.com 1.10,2013-04-09 17:05:00,
2013-04-09 12:20:00,38.4,38.0,29.91,NE,40,0.0,5.0,98,0.14,,,0.56,21,weatherlink.com 1.10,2013-04-09 17:20:00,
2013-04-09 12:35:00,38.5,38.0,29.89,NE,45,2.0,4.0,98,0.13,,,0.59,49,weatherlink.com 1.10,2013-04-09 17:35:00,
2013-04-09 12:50:00,38.6,38.0,29.90,NE,36,1.0,4.0,98,0.13,,,0.62,33,weatherlink.com 1.10,2013-04-09 17:50:00,
2013-04-09 13:05:00,38.6,38.0,29.90,NE,53,2.0,4.0,98,0.13,,,0.65,39,weatherlink.com 1.10,2013-04-09 18:05:00,
2013-04-09 13:20:00,38.6,38.0,29.90,NE,43,4.0,6.0,98,0.12,,,0.68,35,weatherlink.com 1.10,2013-04-09 18:20:00,
2013-04-09 13:35:00,38.2,38.0,29.90,NNE,31,1.0,5.0,98,0.11,,,0.70,14,weatherlink.com 1.10,2013-04-09 18:35:00,
2013-04-09 13:50:00,38.2,38.0,29.97,NE,42,2.0,6.0,98,0.11,,,0.73,0,weatherlink.com 1.10,2013-04-09 18:50:00,
2013-04-09 14:05:00,37.8,37.0,29.90,NNE,13,3.0,6.0,98,0.11,,,0.76,5,weatherlink.com 1.10,2013-04-09 19:05:00,
2013-04-09 14:20:00,37.9,37.0,29.92,NE,38,4.0,4.0,98,0.10,,,0.78,0,weatherlink.com 1.10,2013-04-09 19:20:00,
2013-04-09 14:35:00,38.2,38.0,29.94,NNW,346,6.0,11.0,98,0.11,,,0.81,18,weatherlink.com 1.10,2013-04-09 19:35:00,
2013-04-09 14:50:00,38.4,38.0,29.93,NNW,346,3.0,10.0,98,0.11,,,0.84,16,weatherlink.com 1.10,2013-04-09 19:50:00,
2013-04-09 15:05:00,38.4,38.0,29.92,NNE,20,3.0,11.0,98,0.11,,,0.87,53,weatherlink.com 1.10,2013-04-09 20:05:00,
2013-04-09 15:20:00,38.2,38.0,29.93,ENE,74,4.0,8.0,98,0.12,,,0.90,25,weatherlink.com 1.10,2013-04-09 20:20:00,
2013-04-09 15:35:00,38.0,38.0,29.92,NNE,28,5.0,10.0,98,0.11,,,0.92,79,weatherlink.com 1.10,2013-04-09 20:35:00,
2013-04-09 15:50:00,38.2,38.0,29.91,ENE,71,7.0,12.0,98,0.11,,,0.95,42,weatherlink.com 1.10,2013-04-09 20:50:00,
2013-04-09 16:05:00,37.9,37.0,29.93,NNW,341,4.0,12.0,98,0.10,,,0.97,16,weatherlink.com 1.10,2013-04-09 21:05:00,
2013-04-09 16:20:00,38.0,38.0,29.96,ENE,60,7.0,14.0,98,0.10,,,1.00,14,weatherlink.com 1.10,2013-04-09 21:20:00,
2013-04-09 16:36:00,37.9,37.0,29.93,NE,40,3.0,11.0,98,0.10,,,1.03,9,weatherlink.com 1.10,2013-04-09 21:36:00,
2013-04-09 16:50:00,37.8,37.0,29.94,ENE,74,4.0,14.0,98,0.11,,,1.06,19,weatherlink.com 1.10,2013-04-09 21:50:00,
2013-04-09 17:05:00,37.5,37.0,29.95,NW,305,5.0,13.0,98,0.11,,,1.09,21,weatherlink.com 1.10,2013-04-09 22:05:00,
2013-04-09 17:20:00,37.5,37.0,29.96,North,355,5.0,12.0,98,0.13,,,1.13,14,weatherlink.com 1.10,2013-04-09 22:20:00,
2013-04-09 17:35:00,37.5,37.0,29.96,North,5,6.0,14.0,98,0.14,,,1.17,11,weatherlink.com 1.10,2013-04-09 22:35:00,
2013-04-09 17:50:00,37.7,37.0,29.98,NNE,32,4.0,13.0,98,0.14,,,1.20,9,weatherlink.com 1.10,2013-04-09 22:50:00,
2013-04-09 18:05:00,37.8,37.0,29.98,North,360,5.0,11.0,98,0.15,,,1.24,12,weatherlink.com 1.10,2013-04-09 23:05:00,
2013-04-09 18:20:00,37.8,37.0,29.98,NNW,329,3.0,12.0,98,0.14,,,1.27,11,weatherlink.com 1.10,2013-04-09 23:20:00,
2013-04-09 18:35:00,37.8,37.0,29.99,North,360,6.0,12.0,98,0.13,,,1.30,7,weatherlink.com 1.10,2013-04-09 23:35:00,
2013-04-09 19:09:00,37.8,37.0,29.99,North,355,5.0,12.0,98,0.11,,,1.36,0,weatherlink.com 1.10,2013-04-10 00:09:00,
2013-04-09 19:20:00,37.7,37.0,29.99,NW,324,6.0,11.0,98,0.11,,,1.38,0,weatherlink.com 1.10,2013-04-10 00:20:00,
2013-04-09 19:35:00,37.7,37.0,30.00,NW,323,5.0,9.0,98,0.10,,,1.40,0,weatherlink.com 1.10,2013-04-10 00:35:00,
2013-04-09 19:51:00,37.7,37.0,30.00,NNE,17,6.0,12.0,98,0.08,,,1.41,0,weatherlink.com 1.10,2013-04-10 00:51:00,
2013-04-09 20:05:00,37.7,37.0,30.01,North,360,4.0,10.0,98,0.06,,,1.42,0,weatherlink.com 1.10,2013-04-10 01:05:00,
2013-04-09 22:04:00,37.5,37.0,30.02,NNE,14,4.0,14.0,98,0.01,,,1.43,0,weatherlink.com 1.10,2013-04-10 03:04:00,
2013-04-09 22:21:00,37.4,37.0,30.02,NNE,25,7.0,15.0,97,0.00,,,1.43,0,weatherlink.com 1.10,2013-04-10 03:21:00,
2013-04-09 22:36:00,37.4,37.0,30.02,NNE,24,6.0,13.0,97,0.00,,,1.43,0,weatherlink.com 1.10,2013-04-10 03:36:00,
2013-04-09 22:51:00,37.4,37.0,30.02,NE,55,7.0,12.0,97,0.01,,,1.44,0,weatherlink.com 1.10,2013-04-10 03:51:00,
2013-04-09 23:09:00,37.3,37.0,30.02,NE,39,4.0,11.0,97,0.01,,,1.44,0,weatherlink.com 1.10,2013-04-10 04:09:00,